Simultaneous Nadir Overpasses (SNOs) Predictions

Prediction of SNOs between AQUA and NOAA-19 Satellite Orbit:

Table of predicted SNOs for the next 14.0 days since TLE Epoch: 4/12/2015
Index Date (AQUA) Time (AQUA) Lat,Lon (AQUA) SZA (AQUA ) Date (NOAA-19) Time (NOAA-19) Lat,Lon (NOAA-19) SZA (NOAA-19 ) Distance(km) Time Diff (sec)
1 04/13/2015 22:40:30 -79.70, -8.17 108.28 04/13/2015 22:40:05 -79.70, -8.04 108.28 2.49 25
2 04/13/2015 23:29:54 79.60, 160.25 71.55 04/13/2015 23:30:58 79.60, 160.15 71.54 2.05 64
3 04/16/2015 04:14:15 79.68, 88.56 70.88 04/16/2015 04:14:26 79.67, 88.67 70.86 2.60 11
4 04/18/2015 08:58:37 79.82, 16.43 70.31 04/18/2015 08:57:57 79.83, 16.27 70.35 3.24 40
5 04/18/2015 09:47:58 -79.62,-174.45 110.00 04/18/2015 09:48:56 -79.61,-174.35 110.04 2.32 58
6 04/20/2015 14:32:19 -79.74, 113.59 110.59 04/20/2015 14:32:26 -79.75, 113.47 110.58 2.31 7
7 04/22/2015 19:16:38 -79.81, 42.02 111.24 04/22/2015 19:15:53 -79.80, 42.10 111.24 1.78 45
8 04/22/2015 20:06:00 79.64,-149.11 68.50 04/22/2015 20:06:44 79.64,-148.98 68.47 2.52 44




NCC Satellite Simultaneous Nadir Overpasses (SNOs) Prediction Service
